When you browse on this site, cookies collect data to enhance your experience and personalize the content and advertising you see.
Visit our Privacy Policy to learn more. By continuing to use the site, you agree to this use of cookies and data.
EN

Hourly Weather Petyky

Today, 2 July, Thursday

Time Temperature Precipitation Wind Pressure Humidity
00:00 +20°C° 0 mm 3 mps 740 mmHg 87%
01:00 +20°C° 0 mm 3 mps 740 mmHg 87%
02:00 +20°C° 0 mm 3 mps 740 mmHg 87%
03:00 +19°C° 0 mm 3 mps 740 mmHg 88%
04:00 +19°C° 0 mm 3 mps 740 mmHg 89%
05:00 +19°C° 0 mm 3 mps 739 mmHg 89%
06:00 +21°C° 0.2 mm 3 mps 740 mmHg 86%
07:00 +23°C° 0.2 mm 2 mps 740 mmHg 83%
08:00 +25°C° 0.2 mm 2 mps 740 mmHg 80%
09:00 +26°C° 0.3 mm 2 mps 740 mmHg 76%
10:00 +27°C° 0.3 mm 2 mps 740 mmHg 72%
11:00 +28°C° 0.3 mm 2 mps 740 mmHg 67%
12:00 +28°C° 1.1 mm 2 mps 740 mmHg 70%
13:00 +28°C° 1.1 mm 3 mps 740 mmHg 72%
14:00 +27°C° 1.1 mm 3 mps 740 mmHg 74%
15:00 +26°C° 0.6 mm 3 mps 740 mmHg 78%
16:00 +25°C° 0.6 mm 2 mps 739 mmHg 82%
17:00 +24°C° 0.6 mm 2 mps 739 mmHg 86%
18:00 +24°C° 0.1 mm 2 mps 739 mmHg 87%
19:00 +23°C° 0.1 mm 2 mps 739 mmHg 89%
20:00 +21°C° 0.1 mm 2 mps 739 mmHg 90%
21:00 +21°C° 0 mm 2 mps 739 mmHg 90%
22:00 +20°C° 0 mm 2 mps 739 mmHg 91%
23:00 +20°C° 0 mm 2 mps 739 mmHg 92%

Tomorrow, 3 July, Friday

Time Temperature Precipitation Wind Pressure Humidity
00:00 +21°C° 0 mm 1 mps 739 mmHg 91%
01:00 +21°C° 0 mm 1 mps 739 mmHg 90%
02:00 +21°C° 0 mm 1 mps 739 mmHg 90%
03:00 +20°C° 0 mm 1 mps 739 mmHg 90%
04:00 +20°C° 0 mm 1 mps 738 mmHg 90%
05:00 +18°C° 0 mm 0 mps 738 mmHg 90%
06:00 +21°C° 0 mm 1 mps 738 mmHg 87%
07:00 +22°C° 0 mm 1 mps 739 mmHg 85%
08:00 +23°C° 0 mm 1 mps 739 mmHg 82%
09:00 +24°C° 0 mm 1 mps 739 mmHg 78%
10:00 +26°C° 0 mm 1 mps 739 mmHg 73%
11:00 +27°C° 0 mm 1 mps 739 mmHg 69%
12:00 +27°C° 1.2 mm 2 mps 739 mmHg 71%
13:00 +27°C° 1.2 mm 3 mps 739 mmHg 73%
14:00 +27°C° 1.2 mm 3 mps 739 mmHg 76%
15:00 +26°C° 1.1 mm 4 mps 739 mmHg 78%
16:00 +26°C° 1.1 mm 4 mps 739 mmHg 81%
17:00 +25°C° 1.1 mm 4 mps 740 mmHg 83%
18:00 +23°C° 0.3 mm 4 mps 740 mmHg 85%
19:00 +22°C° 0.3 mm 3 mps 740 mmHg 87%
20:00 +21°C° 0.3 mm 3 mps 741 mmHg 89%
21:00 +20°C° 0.1 mm 3 mps 741 mmHg 91%
22:00 +19°C° 0.1 mm 3 mps 741 mmHg 92%
23:00 +19°C° 0.1 mm 3 mps 742 mmHg 94%

Day after tomorrow, 4 July, Saturday

Time Temperature Precipitation Wind Pressure Humidity
00:00 +18°C° 0 mm 3 mps 742 mmHg 95%
01:00 +18°C° 0 mm 3 mps 742 mmHg 95%
02:00 +17°C° 0 mm 3 mps 742 mmHg 96%
03:00 +17°C° 0 mm 2 mps 742 mmHg 96%
04:00 +16°C° 0 mm 2 mps 742 mmHg 96%
05:00 +16°C° 0 mm 2 mps 743 mmHg 96%
06:00 +17°C° 0 mm 2 mps 743 mmHg 92%
07:00 +18°C° 0 mm 2 mps 743 mmHg 88%
08:00 +19°C° 0 mm 2 mps 744 mmHg 85%
09:00 +21°C° 0 mm 2 mps 744 mmHg 79%
10:00 +23°C° 0 mm 2 mps 744 mmHg 72%
11:00 +24°C° 0 mm 3 mps 744 mmHg 66%
12:00 +24°C° 0 mm 3 mps 744 mmHg 64%
13:00 +25°C° 0 mm 2 mps 744 mmHg 62%
14:00 +25°C° 0 mm 2 mps 743 mmHg 60%
15:00 +25°C° 0 mm 2 mps 743 mmHg 62%
16:00 +25°C° 0 mm 2 mps 743 mmHg 63%
17:00 +25°C° 0 mm 2 mps 743 mmHg 65%
18:00 +24°C° 0 mm 2 mps 743 mmHg 70%
19:00 +23°C° 0 mm 2 mps 743 mmHg 76%
20:00 +21°C° 0 mm 2 mps 743 mmHg 81%
21:00 +20°C° 0 mm 2 mps 743 mmHg 83%
22:00 +20°C° 0 mm 1 mps 743 mmHg 84%
23:00 +19°C° 0 mm 1 mps 744 mmHg 85%

5 July, Sunday

Time Temperature Precipitation Wind Pressure Humidity
00:00 +18°C° 0 mm 1 mps 744 mmHg 86%
01:00 +18°C° 0 mm 1 mps 743 mmHg 88%
02:00 +16°C° 0 mm 1 mps 743 mmHg 89%
03:00 +16°C° 0 mm 1 mps 743 mmHg 89%
04:00 +16°C° 0 mm 1 mps 743 mmHg 90%
05:00 +15°C° 0 mm 0 mps 743 mmHg 91%
06:00 +16°C° 0 mm 0 mps 743 mmHg 86%
07:00 +20°C° 0 mm 1 mps 743 mmHg 82%
08:00 +22°C° 0 mm 1 mps 743 mmHg 78%
09:00 +23°C° 0 mm 1 mps 744 mmHg 74%
10:00 +24°C° 0 mm 1 mps 744 mmHg 70%
11:00 +25°C° 0 mm 1 mps 744 mmHg 66%
12:00 +26°C° 0 mm 1 mps 743 mmHg 64%
13:00 +26°C° 0 mm 1 mps 743 mmHg 62%
14:00 +27°C° 0 mm 1 mps 743 mmHg 60%
15:00 +27°C° 0 mm 1 mps 742 mmHg 60%
16:00 +27°C° 0 mm 1 mps 742 mmHg 60%
17:00 +27°C° 0 mm 1 mps 742 mmHg 60%
18:00 +25°C° 0 mm 1 mps 742 mmHg 65%
19:00 +24°C° 0 mm 1 mps 742 mmHg 71%
20:00 +23°C° 0 mm 1 mps 742 mmHg 76%
21:00 +22°C° 0 mm 1 mps 742 mmHg 78%
22:00 +21°C° 0 mm 1 mps 742 mmHg 80%
23:00 +20°C° 0 mm 1 mps 742 mmHg 82%

6 July, Monday

Time Temperature Precipitation Wind Pressure Humidity
00:00 +20°C° 0 mm 1 mps 742 mmHg 84%
01:00 +19°C° 0 mm 1 mps 742 mmHg 86%
02:00 +19°C° 0 mm 1 mps 742 mmHg 89%
03:00 +19°C° 0 mm 1 mps 742 mmHg 90%
04:00 +19°C° 0 mm 1 mps 742 mmHg 91%
05:00 +19°C° 0 mm 1 mps 742 mmHg 92%
06:00 +20°C° 0 mm 1 mps 742 mmHg 88%
07:00 +21°C° 0 mm 2 mps 742 mmHg 83%
08:00 +23°C° 0 mm 2 mps 742 mmHg 79%
09:00 +24°C° 0 mm 2 mps 742 mmHg 75%
10:00 +26°C° 0 mm 2 mps 742 mmHg 72%
11:00 +27°C° 0 mm 2 mps 742 mmHg 68%
12:00 +27°C° 0 mm 2 mps 741 mmHg 66%
13:00 +28°C° 0 mm 1 mps 741 mmHg 64%
14:00 +29°C° 0 mm 1 mps 741 mmHg 62%
15:00 +29°C° 0 mm 1 mps 740 mmHg 62%
16:00 +29°C° 0 mm 1 mps 740 mmHg 63%
17:00 +28°C° 0 mm 1 mps 740 mmHg 64%
18:00 +27°C° 0 mm 1 mps 740 mmHg 69%
19:00 +26°C° 0 mm 1 mps 740 mmHg 75%
20:00 +25°C° 0 mm 1 mps 739 mmHg 80%
21:00 +24°C° 0 mm 1 mps 740 mmHg 82%
22:00 +23°C° 0 mm 1 mps 740 mmHg 84%
23:00 +22°C° 0 mm 1 mps 740 mmHg 87%

7 July, Tuesday

Time Temperature Precipitation Wind Pressure Humidity
00:00 +22°C° 0.1 mm 1 mps 740 mmHg 88%
01:00 +21°C° 0.1 mm 1 mps 740 mmHg 89%
02:00 +21°C° 0.1 mm 1 mps 740 mmHg 90%
03:00 +21°C° 1.1 mm 1 mps 740 mmHg 91%
04:00 +21°C° 1.1 mm 1 mps 740 mmHg 93%
05:00 +20°C° 1.1 mm 1 mps 740 mmHg 95%
06:00 +20°C° 0.9 mm 2 mps 740 mmHg 94%
07:00 +20°C° 0.9 mm 3 mps 740 mmHg 93%
08:00 +21°C° 0.9 mm 4 mps 740 mmHg 92%
09:00 +21°C° 0.4 mm 4 mps 741 mmHg 90%
10:00 +22°C° 0.4 mm 4 mps 741 mmHg 88%
11:00 +22°C° 0.4 mm 4 mps 741 mmHg 85%
12:00 +23°C° 0.4 mm 4 mps 741 mmHg 82%
13:00 +23°C° 0.4 mm 5 mps 741 mmHg 78%
14:00 +25°C° 0.4 mm 5 mps 741 mmHg 75%
15:00 +23°C° 0.1 mm 5 mps 741 mmHg 74%
16:00 +23°C° 0.1 mm 5 mps 741 mmHg 74%
17:00 +22°C° 0.1 mm 5 mps 741 mmHg 73%
18:00 +21°C° 0 mm 4 mps 741 mmHg 74%
19:00 +20°C° 0 mm 4 mps 741 mmHg 75%
20:00 +19°C° 0 mm 4 mps 742 mmHg 76%
21:00 +19°C° 0 mm 4 mps 742 mmHg 73%
22:00 +19°C° 0 mm 4 mps 742 mmHg 71%
23:00 +18°C° 0 mm 3 mps 742 mmHg 68%
Show more